WELCOME TO TCFT

Voted One Of The Best Flight Schools In The USA

 

 

BECOME AN AIRLINE PILOT

Treasure Coast Flight Training is committed to serving all of your aviation needs as a full service flight academy, aircraft rental facility, and pilot shop

 

 

Questions About Becoming An Airline Pilot?

 

 

What Our Graduates Say

 

 

The training I received with Treasure Coast Flight Training prepared me to become a professional pilot

 

Nathan Meisner

Pilot - Cessna Caravan - USA

Professional yet relaxed environment. Truly an enjoyable experience to fly with TCFT

 

Sophia

Certified Flight Instructor - China

The training I needed to get me to where I am now!

 

Enderson Rafael

Pilot - Go Airlines - Brazil

Thank you TCFT for making me an airline pilot!

 

Kyle Barrett

Pilot - GoJet Airlines - USA

Current Conditions

 

Metar

 

KSUA 200147Z 13008KT 7SM SCT012 BKN025 24/19 A3018

 

TAF

 

TAF AMD KSUA 200203Z 2002/2024 12008KT P6SM VCSH SCT012 BKN025 FM200900 12005KT 6SM BR BKN020 FM201300 13011G18KT P6SM SCT015 BKN025 FM201700 14014G22KT P6SM SCT025

 

 

Look No Further. Get Started Today